Back to catalog

RASSVET-3 3

AliveSciencePO
NORAD 68362·PAYLOAD·🇷🇺 Russia

Launched Mar 23, 2026 from Plesetsk Cosmodrome

Loading…

Next Passes (next 24 hours)

TLE

FreshSource: Space-Track

Epoch: Sep 14, 2026, 11:52 UTC

1 68362U 26061C   26257.49479935  .00003610  00000-0  17410-3 0  9998
2 68362  82.2923 283.1469 0000818 339.9055  20.2146 15.18418198 26994

Track RASSVET-3 3 in real time with AllMySat

Download on the App Store